Theta_e
307 307 308 308 309 309 309 309 309 310 311 311 311 312 312 313 313 317 316 314 316 317 317 315 315 317 321 321 323 322 316 317 322 334 333 341 343 344 345 343 343 343 342 341 343
307 307 308 308 309 309 309 309 310 310 311 311 311 312 313 314 318 325 315 315 317 317 315 315 316 320 320 321 323 319 315 320 319 328 330 336 344 344 343 343 343 342 339 342 342
307 308 309 309 309 310 310 310 309 310 311 311 312 313 316 314 322 324 320 318 318 316 315 319 320 320 319 321 323 320 320 320 324 330 336 340 343 344 342 341 340 341 343 343 342
308 309 310 310 310 310 310 310 310 310 311 311 312 314 318 313 325 328 322 323 317 316 316 320 319 320 318 319 321 321 321 322 323 331 341 340 343 345 343 339 337 340 342 343 342
312 313 313 312 312 311 311 310 311 312 312 312 313 316 319 314 318 328 322 317 315 315 316 319 321 320 319 318 319 319 321 322 322 331 334 340 340 340 342 340 340 342 343 343 343
314 314 314 314 313 312 311 311 316 318 314 314 314 318 320 314 327 327 323 318 315 315 317 320 322 321 320 319 319 320 320 320 323 336 337 337 336 340 343 341 342 343 344 343 342
315 315 315 314 314 312 311 316 318 317 317 318 316 319 319 317 326 326 321 319 316 316 317 319 321 320 321 319 321 321 320 319 325 333 333 338 339 338 344 342 341 342 343 343 344
315 315 315 315 314 313 312 318 316 317 320 321 318 317 319 318 326 325 322 318 316 316 316 318 321 320 320 321 320 319 318 320 320 328 335 337 340 338 344 341 341 342 343 344 343
315 315 315 315 315 314 313 316 316 320 318 318 323 319 319 322 323 323 325 321 321 321 321 321 320 320 320 317 317 316 320 321 322 321 333 330 338 338 340 340 341 341 341 342 338
315 315 315 314 315 314 315 315 316 321 318 316 321 320 320 324 324 322 324 325 322 321 320 319 320 315 313 316 318 319 320 319 321 321 327 325 334 337 338 339 339 340 341 341 339
315 315 314 314 315 314 317 316 317 316 317 315 315 315 318 321 322 323 322 324 323 319 317 317 316 317 318 318 319 320 320 320 319 320 321 320 333 338 338 338 338 339 339 340 339
314 314 313 312 314 315 316 318 317 317 315 315 315 315 317 317 318 322 322 322 319 317 316 315 315 317 318 318 319 319 319 318 318 319 320 321 332 338 337 337 338 338 339 340 340
313 313 312 312 313 315 314 317 317 317 313 315 317 318 319 319 318 322 322 322 316 315 315 315 317 318 318 318 319 318 318 318 318 318 319 321 325 339 338 338 338 338 339 340 340
313 312 310 310 313 314 316 317 316 316 312 317 321 321 320 320 318 323 322 321 316 315 314 315 316 317 317 318 317 318 318 319 320 321 320 320 319 330 339 339 338 338 339 340 341
312 311 310 309 309 312 312 315 315 316 319 325 323 322 321 319 320 320 321 319 315 316 314 315 319 320 319 319 318 319 321 318 319 319 321 320 319 318 328 336 338 339 340 340 341
312 310 309 308 308 310 312 315 317 316 319 323 320 320 319 319 319 319 319 321 318 316 317 315 319 320 319 321 321 322 321 317 316 316 318 319 320 320 329 333 337 338 340 339 340
311 311 310 307 306 309 311 316 313 318 319 322 320 318 318 318 319 319 317 317 316 317 317 318 319 320 321 321 321 320 318 318 318 319 320 319 320 321 322 325 332 336 339 339 338
312 311 309 305 306 308 309 312 317 317 320 319 319 319 319 319 318 318 316 315 316 317 316 318 318 321 323 321 322 320 318 317 320 319 321 321 323 323 329 328 327 332 336 339 340
313 310 305 306 305 307 316 311 310 315 318 318 318 319 319 319 321 319 317 316 316 316 319 318 321 321 322 324 325 324 320 319 319 321 321 322 326 329 329 327 328 330 333 338 340
310 305 307 320 306 309 313 310 312 315 316 317 319 320 320 319 321 323 322 327 326 318 317 320 320 319 323 324 324 324 322 324 318 322 322 323 333 330 331 329 329 330 333 336 339
305 304 316 318 311 319 312 312 315 316 317 317 317 318 320 320 321 323 328 328 328 328 317 318 317 319 321 323 325 323 322 322 319 320 322 324 331 326 327 327 328 329 335 338 342
303 306 316 316 317 315 315 315 318 318 317 317 316 316 320 319 321 324 330 329 329 328 326 318 316 318 319 319 323 322 322 321 323 324 325 323 327 327 326 327 330 333 338 340 342
305 311 316 318 315 314 316 318 318 318 318 318 317 317 319 319 319 323 328 327 327 328 329 327 317 317 318 318 324 327 328 326 321 321 329 329 329 327 327 328 330 331 335 341 344
309 315 320 320 318 315 317 317 318 319 319 319 317 316 318 318 319 321 325 329 329 326 326 326 317 317 318 320 326 328 328 329 325 324 326 328 330 329 328 330 338 335 334 337 341
311 314 318 316 316 316 317 318 320 320 319 320 316 316 316 318 319 320 325 325 327 324 324 322 329 328 327 327 324 324 327 328 330 329 329 329 330 329 330 338 341 340 332 334 335
315 316 319 318 317 318 317 319 321 321 319 319 320 322 317 316 316 320 323 324 325 322 323 323 328 327 329 326 329 326 327 328 331 330 329 330 331 328 334 341 342 341 337 335 337
314 316 318 316 314 316 316 319 320 321 320 320 323 322 324 321 324 323 324 321 323 321 322 324 323 327 329 330 330 325 331 331 331 330 329 331 329 330 333 339 341 341 341 341 342
Wind_Speed
15 15 16 18 19 22 23 23 25 25 23 22 21 21 18 17 16 12 9 4 14 10 9 11 11 12 9 5 6 3 3 2 3 6 5 19 7 17 7 20 8 10 13 27 28
14 16 17 19 20 22 24 24 25 25 23 21 21 20 17 17 13 5 3 12 10 11 10 13 15 11 4 3 5 4 3 6 4 4 7 15 20 21 9 17 3 11 19 28 29
14 16 17 19 21 23 24 25 26 23 23 21 19 18 15 15 4 4 3 8 11 10 11 14 10 5 4 3 5 5 5 5 7 3 14 17 16 8 21 4 24 32 29 30 31
15 17 18 20 21 23 25 25 25 23 21 20 18 16 14 9 2 3 2 6 9 10 13 10 6 6 3 3 3 1 9 7 3 21 23 11 18 9 13 14 34 35 31 33 33
15 18 20 21 22 23 25 25 23 21 21 18 16 13 11 7 2 2 2 4 8 11 13 10 7 4 1 2 3 5 4 9 19 17 35 23 10 10 12 22 32 34 32 33 33
16 18 20 22 23 24 24 22 22 23 19 15 13 12 9 4 1 2 2 4 7 11 14 10 3 5 3 3 2 4 7 12 5 17 26 16 8 7 12 27 33 36 33 30 31
17 19 21 22 24 25 22 21 20 20 13 12 11 11 12 7 3 1 3 3 6 10 10 6 2 6 4 4 4 6 7 6 5 15 4 19 1 5 29 32 35 35 34 33 27
19 22 23 24 24 25 20 20 21 18 11 12 12 11 7 3 7 4 1 1 6 7 8 6 6 9 2 3 6 5 5 4 2 9 11 9 12 5 32 34 30 34 33 32 28
20 23 25 25 24 24 20 19 20 7 7 11 9 6 6 2 5 5 5 1 3 3 3 6 7 2 2 4 5 6 1 2 2 9 6 3 2 8 25 26 27 33 35 31 29
20 23 26 26 24 22 20 16 14 4 11 10 6 6 5 3 3 7 5 5 2 4 1 2 2 3 3 4 4 3 2 4 4 1 4 5 8 11 27 25 28 31 35 34 34
20 23 25 26 23 19 18 11 13 4 22 17 19 20 26 13 9 7 12 10 9 4 1 4 4 3 4 5 3 2 2 4 5 7 8 10 7 16 27 23 22 25 29 35 38
18 22 25 25 22 14 10 13 16 17 17 29 33 32 27 24 8 5 8 10 5 3 2 4 3 6 3 2 3 3 3 6 8 3 3 3 10 17 21 29 35 33 30 38 39
19 22 24 24 20 7 10 12 17 20 6 23 11 15 22 15 14 12 9 12 3 5 3 5 6 4 2 4 3 3 4 4 8 6 2 4 4 9 16 13 25 26 37 36 42
19 21 24 24 11 14 2 11 15 13 3 7 5 6 11 9 5 22 14 7 1 8 5 4 6 6 5 6 6 5 8 7 5 2 4 4 4 7 17 21 12 25 32 35 36
18 20 23 21 21 17 15 13 14 3 4 2 2 3 10 10 8 9 15 13 7 6 6 7 1 2 3 7 6 8 3 7 5 5 1 2 3 6 9 15 19 23 36 35 40
19 20 23 22 20 11 14 13 4 4 6 6 1 2 4 1 2 3 10 15 3 5 1 7 2 4 6 3 5 7 2 4 5 3 1 7 6 6 6 23 25 26 33 36 41
20 21 24 24 21 15 12 9 4 3 6 5 3 4 3 3 2 4 5 4 6 3 3 4 3 3 5 4 1 4 5 3 4 3 6 1 5 8 4 9 21 26 39 35 39
22 24 27 25 19 11 7 4 3 3 5 5 5 3 5 1 2 3 5 5 4 4 3 2 7 3 2 4 3 3 6 5 3 3 4 3 5 5 4 11 20 29 38 37 33
24 27 28 18 11 12 8 2 7 5 5 7 7 7 8 6 3 1 6 3 7 9 7 5 4 4 3 3 3 2 3 5 3 1 2 3 7 8 4 6 10 6 24 31 34
24 28 14 10 13 19 4 5 4 3 6 4 2 3 3 5 5 5 4 5 5 5 6 2 3 3 5 3 6 6 3 1 2 3 4 5 4 5 2 3 6 7 6 18 29
19 14 7 3 22 11 4 6 4 8 7 5 2 2 3 2 2 4 5 1 6 6 4 5 5 6 3 1 2 5 3 3 3 5 5 4 6 6 7 9 10 10 14 19 27
8 3 11 25 3 1 2 5 4 4 7 5 4 8 2 2 1 3 3 3 12 4 3 3 4 3 9 7 5 5 6 7 4 5 4 4 6 3 4 8 16 14 23 23 24
4 6 12 12 2 1 4 2 3 3 4 3 4 2 2 4 3 2 4 2 9 4 3 3 2 3 10 7 3 2 2 4 3 1 6 5 5 1 7 8 13 24 20 27 29
3 2 3 10 6 5 2 3 4 7 11 8 7 4 2 3 3 2 2 0 5 4 7 3 3 4 6 3 3 5 4 3 3 2 3 4 2 2 3 13 12 18 26 24 22
4 3 2 2 0 1 3 2 5 3 6 4 3 5 6 3 3 3 1 0 4 9 4 4 1 3 6 7 4 7 9 9 2 3 2 3 5 2 3 11 13 20 25 25 23
4 2 4 4 7 2 2 3 4 5 5 5 1 3 3 7 7 5 4 4 3 3 3 3 0 2 4 4 5 4 7 6 1 2 7 5 6 2 10 19 18 20 27 31 28
8 4 3 4 4 1 2 4 5 8 6 13 2 4 1 4 5 6 4 2 3 6 2 2 3 4 5 5 7 3 3 5 4 3 6 4 5 4 8 7 14 21 27 25 33
Wind_Direction
346 346 345 344 343 341 341 340 336 336 335 334 333 333 335 331 320 309 283 200 179 155 157 155 158 168 181 205 197 183 58 263 253 135 172 163 116 161 176 143 153 187 161 160 161
345 346 347 345 344 341 340 338 336 332 333 332 331 333 337 335 333 27 139 161 157 159 158 163 155 165 182 201 189 134 136 221 212 188 182 162 148 164 144 162 188 163 149 164 169
348 348 347 345 344 340 338 336 335 330 329 330 328 331 339 338 352 35 134 163 164 151 148 154 155 160 180 194 196 181 202 194 246 168 151 163 160 169 146 191 164 155 160 173 177
350 349 348 346 343 337 336 335 332 328 325 325 325 329 340 336 147 15 66 190 179 158 157 166 173 160 146 212 211 313 251 264 252 182 161 165 158 144 180 179 170 160 168 173 182
350 349 348 346 343 337 333 334 331 322 318 319 319 326 341 323 282 38 346 199 183 171 169 173 178 155 147 231 280 197 250 323 309 210 176 172 175 149 210 166 169 163 170 179 188
344 343 343 343 341 337 334 334 328 322 318 317 314 321 329 308 114 61 337 229 191 180 181 180 133 338 244 236 159 276 276 299 263 148 156 159 160 149 166 163 169 171 176 186 192
335 335 335 336 338 337 338 339 330 330 323 322 312 319 311 293 205 149 358 232 219 201 194 191 321 341 307 313 301 292 350 350 134 145 138 131 350 202 163 167 170 178 182 186 196
330 330 331 332 335 336 339 339 332 323 317 309 307 310 270 238 195 200 267 211 202 199 210 242 314 300 207 301 4 31 44 352 325 131 178 145 208 186 172 169 175 180 185 194 206
329 330 331 332 333 333 340 336 330 330 358 325 303 301 274 276 248 255 216 217 155 164 217 294 305 257 83 89 21 9 261 282 39 198 147 94 226 184 179 176 183 188 191 197 194
328 330 331 334 334 333 345 332 314 307 321 317 293 299 244 149 5 296 204 232 274 298 277 193 137 55 39 75 192 219 9 337 282 355 175 166 225 180 183 190 195 196 197 202 201
327 330 331 334 337 335 357 5 13 332 317 278 275 281 280 290 316 247 226 222 252 291 208 15 67 191 238 197 155 128 204 261 256 172 189 202 187 184 186 198 209 204 205 207 210
324 327 329 333 336 333 1 42 19 335 299 292 284 273 267 268 300 220 216 199 173 206 52 8 256 239 238 255 190 198 271 290 290 311 148 177 212 192 186 205 205 200 209 209 213
322 325 327 331 334 326 346 3 344 343 276 300 267 245 250 233 223 229 192 195 132 173 182 173 244 68 205 267 243 215 212 230 226 328 312 98 354 160 216 229 216 211 217 214 211
318 323 324 329 329 330 341 323 329 334 7 276 256 248 192 172 223 225 230 189 128 194 168 221 267 226 243 243 157 275 201 232 261 63 263 137 275 222 203 218 215 218 222 221 216
313 319 319 323 315 322 310 311 331 324 340 271 216 191 170 171 142 207 213 189 178 186 115 242 266 66 254 229 157 232 245 215 233 210 88 298 78 262 183 217 226 220 221 220 218
309 313 311 312 304 313 310 315 335 47 251 324 357 146 149 208 85 118 178 199 199 160 154 232 267 229 222 267 191 259 306 61 54 111 0 252 156 274 185 208 220 224 222 217 215
304 306 301 298 294 302 308 331 49 166 317 328 317 332 184 194 225 148 149 163 182 128 289 318 262 268 215 287 300 90 64 344 338 2 227 259 119 231 262 232 221 215 222 212 216
301 303 298 292 290 277 287 50 195 250 267 315 321 333 73 351 251 140 116 211 259 102 98 162 320 200 53 185 228 185 154 152 228 228 251 102 242 252 232 301 237 225 221 210 205
304 306 305 309 249 208 171 117 208 217 313 337 335 54 14 340 60 181 175 253 221 166 179 153 269 293 216 218 150 288 209 190 150 45 8 260 275 311 293 356 56 210 200 198 200
311 316 314 346 169 169 108 228 247 253 329 339 19 39 31 333 45 36 54 296 327 175 123 288 329 281 308 343 240 174 197 308 13 213 243 274 261 229 273 1 81 59 109 177 192
315 317 308 203 149 167 170 218 268 293 2 354 313 299 239 94 47 13 354 334 359 323 157 159 139 273 334 214 229 16 350 355 152 162 189 239 258 217 217 184 142 135 145 167 175
305 333 114 137 127 164 170 198 336 325 312 272 234 220 198 97 87 47 91 329 334 308 46 320 149 201 232 244 213 188 228 179 162 249 199 172 266 337 225 153 127 128 150 166 171
278 276 198 223 170 245 274 279 281 285 271 279 289 184 288 141 82 63 121 282 28 68 27 343 322 21 337 349 60 163 195 202 202 98 193 152 255 2 93 100 118 123 136 147 149
276 325 253 194 251 158 189 258 254 268 262 227 249 211 196 110 34 124 77 293 336 59 31 139 83 161 196 235 320 344 313 299 122 102 197 215 263 24 103 118 111 120 141 149 151
225 252 317 278 179 160 169 251 276 264 243 279 259 201 170 134 121 151 146 357 7 359 41 85 71 348 260 248 238 244 270 285 281 250 152 235 90 354 182 138 125 125 138 139 134
198 293 321 286 305 280 88 268 246 250 217 281 296 34 213 148 166 192 170 183 207 22 49 9 319 325 286 312 13 277 279 241 275 313 69 355 69 327 124 127 130 137 133 132 137
200 241 295 314 321 84 245 287 302 300 243 235 268 127 128 211 161 160 190 285 201 152 131 101 106 20 279 331 331 332 225 264 267 204 148 167 222 145 98 92 137 137 140 146 145